Theta_e
326 318 311 309 300 297 294 300 306 307 307 317 323 326 324 327 324 315 342 351 355 356 359 359 362 362 362 361 360 360 359 359 360 360 360 360 360 360 360 360 360 359 356 353 352 353 354 354 353
321 314 309 303 295 291 295 301 304 307 310 323 327 327 326 324 339 341 343 355 355 357 358 359 362 362 361 361 359 359 359 359 360 360 360 360 360 359 359 360 359 356 354 352 352 353 354 354 353
311 312 302 297 292 292 295 302 306 308 310 313 320 328 328 330 341 342 350 356 357 355 357 359 362 361 361 360 360 359 359 359 360 360 360 359 359 359 359 359 358 354 352 351 352 353 354 353 353
305 303 300 294 292 297 300 302 304 307 309 316 322 325 333 340 341 348 355 356 355 354 356 361 362 361 360 360 360 359 359 359 359 359 359 359 359 359 359 358 356 354 352 351 352 353 354 354 353
301 298 292 290 294 300 301 304 304 304 308 316 323 325 329 342 350 351 353 354 352 353 355 359 361 361 360 360 360 360 359 359 359 360 359 358 359 358 358 357 355 353 353 351 352 354 355 355 353
296 295 289 289 295 302 301 303 303 302 306 324 327 325 326 345 346 349 350 350 353 353 356 357 361 361 360 360 359 359 358 359 359 359 359 359 358 358 357 357 355 354 353 352 352 353 354 353 351
294 291 289 289 294 297 302 301 300 301 302 311 327 322 325 339 345 348 347 350 352 354 355 355 356 359 361 359 359 358 358 358 358 358 358 357 357 357 357 356 355 354 353 352 352 351 350 349 348
297 294 289 291 292 295 304 301 300 300 304 319 325 314 314 333 344 346 344 348 349 351 352 353 355 357 356 356 359 359 359 358 358 358 357 357 357 357 356 354 354 354 352 351 351 349 348 347 345
300 290 288 292 295 296 300 299 303 305 306 310 313 317 321 332 342 341 343 346 347 349 347 351 353 355 355 355 357 358 360 359 358 358 357 354 351 351 352 353 351 355 353 351 350 349 347 346 345
294 288 292 298 300 298 298 298 300 303 304 306 310 313 315 337 339 340 340 341 344 345 346 350 351 353 353 356 354 354 355 355 355 353 352 350 348 348 350 351 353 354 354 352 351 350 349 347 334
293 291 297 299 302 299 298 300 302 302 300 303 304 306 308 310 321 339 340 342 343 346 346 347 349 350 351 352 354 354 354 354 354 352 352 350 348 346 348 345 346 346 351 344 345 342 341 337 335
292 296 298 299 302 297 298 301 300 299 301 305 305 307 306 305 306 314 330 338 342 344 345 346 347 348 348 349 351 351 351 352 351 352 351 349 347 344 344 343 342 342 342 341 337 337 337 336 336
291 296 298 300 299 297 300 299 299 300 304 305 305 306 304 304 304 305 310 315 333 343 345 344 346 346 347 348 349 350 350 351 351 351 351 349 345 342 343 342 341 340 341 339 337 335 334 332 332
296 296 298 298 297 297 298 299 299 302 306 305 303 303 303 303 304 303 304 307 309 327 343 344 344 345 345 346 346 347 348 349 349 350 350 350 346 344 342 342 341 339 338 338 337 331 331 328 327
296 293 295 296 298 297 299 296 297 303 304 303 302 302 302 303 304 305 305 305 322 324 329 341 342 344 341 343 345 344 345 345 346 347 348 349 348 344 343 340 340 340 337 334 333 331 329 326 326
293 292 287 295 297 299 299 292 299 303 301 300 301 302 303 303 304 305 305 304 317 333 337 337 343 341 340 341 342 345 343 341 342 342 343 347 349 348 344 341 339 338 335 333 332 331 328 327 327
290 286 289 293 298 297 295 291 299 301 300 299 300 301 302 301 304 305 306 307 323 335 336 338 340 341 342 336 337 344 348 344 341 340 339 339 341 345 345 342 340 338 334 332 332 331 329 326 324
287 287 290 291 295 295 293 293 297 300 298 299 300 300 301 302 304 306 308 315 325 334 334 334 338 338 337 332 333 336 341 345 346 343 340 339 339 340 338 341 338 337 334 334 332 331 328 328 326
292 290 290 293 296 294 292 292 295 298 295 296 297 298 300 301 304 304 310 316 322 330 331 330 330 329 330 329 327 329 335 340 341 344 345 346 342 341 338 338 338 337 335 335 335 334 330 327 326
292 289 289 293 295 293 292 292 295 296 295 296 298 299 299 299 302 304 308 312 317 321 320 323 325 325 327 326 325 326 326 328 330 333 334 340 339 340 341 337 337 336 336 335 336 331 330 331 329
291 289 289 291 295 294 291 289 292 296 297 299 298 298 299 300 301 301 306 311 313 316 319 322 322 321 320 321 320 317 317 316 315 319 322 328 331 333 337 338 338 337 336 337 338 336 331 330 330
288 295 295 293 289 284 291 282 288 293 294 296 298 297 298 300 301 302 308 311 314 316 317 316 317 318 319 317 315 314 313 311 314 317 321 321 326 329 331 330 333 336 337 337 338 337 334 332 331
292 296 294 293 288 285 286 283 287 291 292 294 297 299 300 300 300 303 310 313 315 316 315 316 316 316 315 316 316 316 315 316 317 317 317 319 322 325 328 328 329 327 332 337 337 337 333 333 329
298 293 290 287 285 280 285 285 284 289 292 294 298 303 303 303 302 305 309 310 310 314 314 313 311 311 317 316 316 315 312 311 312 314 318 318 320 321 324 327 326 326 324 327 330 330 331 332 329
292 286 280 279 279 279 287 284 286 292 297 300 301 301 300 301 302 302 302 305 309 309 308 309 310 309 310 312 312 312 311 311 313 316 316 316 319 320 319 320 320 321 324 327 324 322 320 323 325
289 287 281 277 277 280 289 283 288 299 302 303 302 300 301 301 301 302 303 305 306 307 307 309 307 308 309 309 309 310 312 315 315 314 315 318 319 320 318 318 316 317 320 321 324 324 324 322 323
293 286 289 284 284 281 284 289 295 300 300 302 301 302 301 300 301 302 302 303 304 306 306 307 306 307 308 309 309 312 311 314 314 313 315 318 319 320 317 316 314 314 315 316 317 321 325 327 328
297 298 288 285 279 277 282 285 287 295 297 300 299 300 300 301 301 301 301 301 303 304 305 305 306 307 309 310 310 311 310 313 313 312 311 316 317 317 316 315 313 313 313 313 313 312 316 319 322
292 289 290 289 285 279 276 283 294 297 296 297 298 299 300 301 301 302 302 302 302 302 304 307 307 307 308 308 308 308 309 312 312 310 310 314 314 315 314 314 313 312 312 311 310 311 313 314 315
292 290 290 285 284 283 280 282 296 296 296 297 298 301 301 305 306 304 305 304 303 302 302 302 302 305 306 307 307 307 307 309 308 308 310 313 313 314 315 314 313 313 313 311 310 311 313 312 313
Wind_Speed
7 8 1 4 4 5 2 6 3 8 8 7 1 2 1 4 0 3 1 5 16 15 12 16 13 15 18 18 18 17 16 16 17 17 16 16 15 14 14 13 13 14 14 13 12 12 12 12 12
5 5 4 2 5 2 5 5 6 4 5 8 6 4 5 3 3 7 8 8 14 14 11 12 14 14 17 17 17 17 16 16 16 15 15 15 14 14 13 12 12 13 13 12 12 12 12 12 12
6 2 4 5 3 5 5 5 5 12 3 8 4 2 2 0 3 9 8 14 13 11 10 13 15 13 16 17 17 16 15 15 14 14 14 14 12 12 11 11 11 12 13 13 12 12 11 10 10
3 5 4 4 5 7 7 4 7 12 12 2 3 6 3 2 7 8 13 15 15 10 8 15 17 14 15 17 17 16 15 15 14 13 13 13 13 11 10 11 10 10 13 13 13 12 11 9 8
4 3 3 0 5 6 2 5 6 7 6 2 5 2 2 3 11 16 15 14 15 11 8 11 17 16 15 16 16 16 16 16 16 16 15 13 11 11 10 9 10 10 10 12 12 11 9 8 7
4 3 3 4 6 5 3 5 5 2 5 3 7 5 1 6 13 11 14 13 11 13 10 10 16 16 16 16 16 16 16 16 16 16 16 17 15 13 11 11 10 10 10 10 10 9 8 8 7
5 4 4 3 4 7 1 3 5 5 2 7 11 7 3 6 7 14 13 11 12 10 10 8 9 12 14 15 15 15 15 15 15 15 14 13 13 14 15 13 12 12 11 11 11 10 10 9 9
5 5 3 5 4 7 2 5 4 3 7 4 4 7 7 9 11 9 8 8 8 9 9 9 9 10 11 11 17 16 16 15 14 13 13 12 12 11 10 9 11 13 14 13 13 13 13 13 12
3 2 4 5 5 5 6 8 6 5 4 4 4 4 5 11 13 9 8 5 6 6 6 8 11 11 10 9 12 17 19 17 15 13 13 10 5 6 9 8 9 10 10 11 12 12 12 11 11
5 5 8 6 5 4 3 3 4 5 8 7 5 8 8 13 15 13 11 10 9 11 10 9 9 10 9 8 7 6 7 7 8 7 6 5 4 5 7 9 12 12 11 9 9 9 9 8 3
6 7 5 4 6 2 4 9 4 3 2 2 1 2 5 5 3 10 13 15 19 12 8 10 6 5 8 6 6 6 6 6 6 7 8 7 5 3 2 2 2 2 7 3 4 3 2 2 3
3 7 5 3 5 2 6 4 5 1 7 4 4 3 2 3 8 9 8 7 8 10 10 9 8 8 6 4 5 6 7 7 6 8 7 5 4 4 3 3 4 4 3 4 3 2 3 4 5
3 5 5 6 9 6 4 9 7 6 10 6 4 5 5 5 4 9 7 6 7 9 12 13 12 11 10 7 5 6 8 8 9 9 10 7 6 6 6 5 5 5 4 5 5 4 4 5 5
6 9 10 5 9 5 6 11 8 8 10 8 6 7 8 9 8 4 9 7 8 10 12 13 15 12 12 10 10 8 6 6 5 7 7 9 5 5 6 5 6 5 3 3 3 4 5 5 5
4 4 5 6 8 8 8 9 8 11 7 8 8 8 8 10 6 10 8 9 10 8 6 13 13 12 12 10 8 6 6 5 5 4 5 8 7 6 6 4 6 5 4 6 4 5 4 4 4
1 3 0 5 3 8 9 12 6 9 7 10 10 8 8 9 10 9 8 7 10 6 7 7 9 12 10 9 5 4 4 4 4 4 4 8 8 9 6 5 6 5 4 5 5 6 7 7 6
4 3 4 5 5 2 5 5 10 6 8 10 10 9 8 9 9 10 7 8 9 9 9 8 9 11 9 7 4 4 4 4 3 3 3 5 7 6 6 6 5 5 5 4 6 6 7 6 5
6 4 4 5 1 4 4 8 10 12 9 13 10 9 8 8 13 11 8 7 8 8 8 8 8 9 7 5 4 1 3 4 3 4 6 8 5 5 5 6 6 4 3 6 7 9 5 6 7
3 2 4 4 4 1 7 7 10 11 3 7 8 9 9 10 11 5 3 5 7 5 8 10 10 7 6 3 3 2 4 2 2 2 4 4 3 5 7 7 6 5 7 9 9 6 6 3 2
4 3 5 10 7 7 9 9 9 4 6 8 9 9 10 7 7 6 7 6 6 8 7 8 9 9 6 4 3 3 2 1 2 2 3 5 2 3 4 5 5 6 6 9 8 6 3 3 4
4 4 6 9 5 3 3 5 6 5 5 2 5 6 7 9 10 5 9 10 7 9 10 9 9 8 5 6 5 3 3 3 3 4 2 3 5 6 3 2 6 7 6 8 9 7 7 6 3
6 9 11 6 3 5 3 6 6 6 7 5 8 7 9 9 9 6 9 11 13 8 7 6 7 8 7 7 4 5 4 2 2 1 1 3 3 5 7 6 4 5 4 7 8 7 8 7 8
7 3 6 7 5 3 1 2 9 3 4 7 8 9 9 10 11 11 14 18 12 10 9 7 7 7 7 7 7 6 4 3 1 0 2 3 3 3 5 6 6 4 3 5 6 6 7 7 4
1 1 6 5 4 1 5 6 5 4 5 5 5 7 7 10 8 6 5 8 9 7 8 7 8 5 7 7 8 8 8 5 2 2 3 3 1 1 3 4 4 5 3 4 5 5 7 9 7
4 6 3 4 2 6 3 0 8 5 5 6 6 5 4 5 5 4 9 9 6 7 7 7 8 8 7 6 5 6 6 6 7 6 5 3 2 2 2 2 3 3 5 5 5 5 6 8 8
7 10 7 6 4 4 5 5 5 2 5 5 6 5 4 8 8 9 8 8 8 8 8 7 8 7 7 7 7 6 7 5 5 6 4 4 4 4 3 3 3 0 4 5 4 4 5 5 7
4 4 5 7 2 4 4 7 8 5 8 8 9 9 8 8 5 10 8 8 8 8 9 9 8 7 7 8 7 7 7 7 7 8 6 5 5 5 6 6 4 2 2 4 5 3 7 6 6
4 4 2 3 5 5 4 4 6 2 5 6 6 7 7 6 6 6 4 2 4 5 5 5 7 11 12 9 8 8 8 8 8 7 8 8 7 7 7 7 6 5 4 4 3 5 5 5 6
5 2 4 5 5 6 1 7 5 8 3 1 3 2 4 5 3 3 3 5 7 5 6 8 7 9 8 8 8 8 8 8 7 7 7 8 7 8 8 8 7 7 6 6 5 5 7 6 6
2 3 3 4 4 1 5 8 1 3 4 6 6 8 5 4 7 7 8 4 4 5 5 6 5 4 6 6 7 7 6 7 7 8 10 8 9 8 9 8 7 7 7 6 7 7 6 6 8
Wind_Direction
320 306 307 36 52 65 279 261 300 324 1 325 53 126 166 52 117 214 325 141 134 141 153 158 158 145 133 130 127 124 124 123 122 123 126 129 133 136 134 133 132 134 136 140 141 141 144 142 138
319 321 40 68 92 62 271 270 260 245 69 307 20 36 33 46 97 112 108 148 135 140 150 147 154 153 138 134 132 131 129 126 125 129 133 135 138 138 137 135 137 138 141 144 147 151 155 154 150
326 36 78 95 113 175 229 243 312 310 317 232 161 104 91 198 77 158 137 140 127 140 153 150 149 159 143 140 137 134 132 131 133 137 140 142 141 139 141 142 144 148 151 153 156 161 165 164 158
12 7 33 95 219 250 213 283 297 315 325 65 103 76 58 249 156 140 136 138 135 142 157 151 146 157 150 145 141 140 140 140 142 146 150 152 153 152 153 152 154 161 162 164 167 171 176 176 170
34 65 57 140 252 260 244 261 276 295 298 203 115 132 60 24 108 130 140 148 146 147 153 153 150 154 157 152 150 150 151 154 157 159 162 164 165 163 161 163 167 171 173 173 177 181 185 184 183
28 88 75 236 249 256 310 277 285 260 305 224 102 108 155 138 135 154 150 153 155 151 154 159 157 157 160 161 159 161 163 165 170 171 171 170 170 173 174 175 179 181 183 185 189 191 196 197 204
132 95 211 223 268 291 213 337 325 289 244 237 147 122 141 201 166 156 155 153 151 153 152 156 156 160 162 165 167 168 170 175 176 177 178 180 181 180 180 183 187 189 190 192 193 199 205 211 212
129 111 184 233 217 263 215 335 249 334 302 349 173 164 185 204 156 145 136 140 142 158 165 162 159 167 169 172 173 174 176 179 181 184 181 182 187 191 200 205 203 198 197 197 200 203 207 210 215
105 83 213 212 194 241 322 26 346 296 346 329 321 162 153 133 137 126 119 110 129 165 176 179 175 176 177 180 184 180 180 181 182 186 189 188 188 197 203 203 217 225 225 222 215 215 220 229 233
145 171 206 205 218 270 331 305 360 3 349 344 20 15 44 128 147 153 167 171 175 186 192 190 187 177 169 179 180 184 188 185 183 185 189 185 199 195 198 209 220 225 225 229 245 255 250 259 311
188 216 167 228 246 290 291 320 9 339 360 263 47 64 86 99 145 177 185 184 187 188 184 184 178 175 175 181 171 183 192 192 197 193 185 183 178 202 234 295 181 268 250 257 231 229 250 299 275
196 243 214 175 237 277 269 273 307 196 232 184 258 274 49 70 140 198 196 200 174 177 184 171 173 173 177 151 180 179 197 195 202 203 200 193 198 200 221 172 216 191 214 205 266 238 231 242 246
225 267 250 236 259 240 272 260 239 272 250 228 220 189 212 199 248 149 219 222 177 185 185 188 178 181 179 164 174 190 199 198 204 204 198 185 196 198 188 202 218 225 207 211 212 226 223 238 250
215 229 257 272 257 243 203 256 148 251 254 253 201 235 210 217 209 254 158 212 194 210 199 183 186 181 182 180 176 186 194 200 201 205 203 210 208 212 216 210 218 216 206 222 234 232 244 236 221
220 215 270 253 251 229 173 263 210 230 240 249 265 253 245 235 223 211 220 161 206 219 201 187 178 172 180 182 183 173 193 197 204 199 207 204 211 203 204 223 243 216 192 192 204 218 226 247 234
360 36 211 273 259 254 155 254 263 248 233 247 249 251 251 250 225 237 229 204 183 205 186 146 167 169 170 189 170 155 174 186 207 193 195 215 211 220 215 215 226 203 191 189 209 218 230 239 235
353 203 189 290 207 215 163 281 270 265 246 254 254 246 241 252 252 240 217 205 176 173 153 150 152 167 162 141 143 133 191 212 216 184 224 226 232 220 216 218 232 198 188 200 226 231 222 233 233
207 207 223 202 248 181 278 265 284 286 224 226 238 262 266 255 240 237 203 190 161 163 150 144 156 165 142 122 117 199 207 217 206 207 212 228 232 219 214 237 240 203 192 216 224 230 213 230 234
183 207 266 260 252 305 253 251 265 285 245 233 230 248 255 242 250 255 194 122 132 165 161 168 156 169 144 137 148 173 210 184 177 183 281 270 255 237 217 212 219 202 210 230 229 231 235 263 318
228 244 266 290 258 165 267 251 248 288 249 222 216 236 241 248 244 220 166 157 181 162 161 148 141 156 166 148 139 134 129 45 26 66 60 78 100 257 245 219 240 223 219 237 229 209 199 219 165
243 201 243 224 293 221 245 281 275 278 280 269 251 249 292 245 237 209 173 185 173 172 169 162 157 146 138 130 104 74 58 39 41 13 37 23 350 339 341 237 219 232 218 241 246 227 211 233 224
252 214 229 237 251 236 133 275 291 272 295 299 277 266 265 263 252 195 185 183 180 176 156 146 148 148 146 144 119 131 142 130 180 162 265 351 358 329 327 326 318 261 238 238 233 215 218 197 216
222 135 212 205 184 132 275 94 266 276 292 286 299 296 294 261 242 206 188 185 169 156 159 153 145 145 154 151 141 133 135 133 132 160 351 6 355 332 336 340 331 333 283 257 245 221 211 222 192
348 25 38 41 92 240 229 168 268 227 227 292 271 307 317 313 294 194 151 142 138 140 135 136 144 158 156 156 166 153 140 147 103 15 18 355 353 53 28 24 3 331 311 264 247 228 236 237 231
104 66 337 336 350 217 256 70 233 265 262 247 269 309 354 15 51 76 111 101 90 119 136 149 162 167 176 162 157 158 155 161 172 173 180 179 201 176 144 96 18 337 328 307 258 246 221 237 240
188 159 159 206 206 247 319 247 241 279 330 323 27 347 127 104 99 90 99 119 140 157 169 178 177 172 188 184 192 186 186 186 176 171 172 184 188 190 207 177 155 37 333 321 322 265 261 234 240
171 173 194 108 18 73 251 300 314 15 23 56 51 39 18 356 115 152 157 167 174 184 193 188 187 207 208 212 204 200 196 188 189 191 182 187 191 193 196 205 208 234 316 325 326 313 306 291 252
124 149 106 9 164 226 267 252 236 43 59 42 53 63 39 60 45 17 1 230 237 224 221 210 210 204 210 208 207 208 203 199 202 183 197 198 203 202 195 201 209 218 239 263 309 311 294 283 278
2 45 60 119 129 158 215 257 231 168 154 10 311 148 112 84 42 268 233 229 214 221 229 239 234 226 227 220 227 222 221 216 206 205 214 210 199 201 199 203 201 206 213 225 230 253 282 288 283
110 105 112 144 216 135 141 268 327 102 29 4 289 293 311 273 233 210 231 241 302 298 302 279 336 307 280 304 306 273 247 231 224 221 223 218 217 204 206 203 207 209 214 221 223 230 238 260 284